Time,TemperatureF,DewpointF,PressureIn,WindDirection,WindDirectionDegrees,WindSpeedMPH,WindSpeedGustMPH,Humidity,HourlyPrecipIn,Conditions,Clouds,dailyrainin,SoftwareType,DateUTC
2013-05-23 00:11:00,71.2,19.0,29.53,South,181,0.0,1.0,14,0.00,,,0.00,weatherlink.com 1.10,2013-05-23 06:11:00,
2013-05-23 00:26:00,70.4,17.0,29.54,SSE,160,0.0,1.0,13,0.00,,,0.00,weatherlink.com 1.10,2013-05-23 06:26:00,
2013-05-23 00:41:00,69.3,18.0,29.54,South,172,0.0,1.0,14,0.00,,,0.00,weatherlink.com 1.10,2013-05-23 06:41:00,
2013-05-23 00:56:00,69.0,19.0,29.54,ESE,117,0.0,1.0,15,0.00,,,0.00,weatherlink.com 1.10,2013-05-23 06:56:00,
2013-05-23 01:11:00,69.1,19.0,29.55,SE,124,1.0,1.0,15,0.00,,,0.00,weatherlink.com 1.10,2013-05-23 07:11:00,
2013-05-23 01:26:00,69.5,24.0,29.55,East,100,0.0,2.0,18,0.00,,,0.00,weatherlink.com 1.10,2013-05-23 07:26:00,
2013-05-23 01:41:00,68.9,25.0,29.55,ESE,108,0.0,1.0,19,0.00,,,0.00,weatherlink.com 1.10,2013-05-23 07:41:00,
2013-05-23 01:57:00,68.5,22.0,29.55,ESE,118,0.0,1.0,17,0.00,,,0.00,weatherlink.com 1.10,2013-05-23 07:57:00,
2013-05-23 02:11:00,68.1,20.0,29.55,South,183,0.0,5.0,16,0.00,,,0.00,weatherlink.com 1.10,2013-05-23 08:11:00,
2013-05-23 02:26:00,69.0,18.0,29.55,NNE,15,1.0,4.0,14,0.00,,,0.00,weatherlink.com 1.10,2013-05-23 08:26:00,
2013-05-23 02:41:00,66.9,21.0,29.56,North,360,0.0,2.0,17,0.00,,,0.00,weatherlink.com 1.10,2013-05-23 08:41:00,
2013-05-23 02:57:00,65.1,22.0,29.56,North,349,0.0,1.0,19,0.00,,,0.00,weatherlink.com 1.10,2013-05-23 08:57:00,
2013-05-23 03:12:00,63.6,22.0,29.57,ENE,68,0.0,1.0,20,0.00,,,0.00,weatherlink.com 1.10,2013-05-23 09:12:00,
2013-05-23 03:27:00,63.1,21.0,29.57,ESE,105,1.0,1.0,20,0.00,,,0.00,weatherlink.com 1.10,2013-05-23 09:27:00,
2013-05-23 03:42:00,63.5,20.0,29.58,NW,314,0.0,4.0,19,0.00,,,0.00,weatherlink.com 1.10,2013-05-23 09:42:00,
2013-05-23 03:57:00,63.9,21.0,29.58,WNW,283,0.0,2.0,19,0.00,,,0.00,weatherlink.com 1.10,2013-05-23 09:57:00,
2013-05-23 04:12:00,62.5,24.0,29.59,SW,214,0.0,1.0,23,0.00,,,0.00,weatherlink.com 1.10,2013-05-23 10:12:00,
2013-05-23 04:27:00,62.3,23.0,29.59,East,101,0.0,2.0,22,0.00,,,0.00,weatherlink.com 1.10,2013-05-23 10:27:00,
2013-05-23 04:42:00,62.3,24.0,29.59,East,101,0.0,1.0,23,0.00,,,0.00,weatherlink.com 1.10,2013-05-23 10:42:00,
2013-05-23 04:57:00,61.7,19.0,29.59,SE,136,0.0,1.0,19,0.00,,,0.00,weatherlink.com 1.10,2013-05-23 10:57:00,
2013-05-23 05:12:00,62.0,20.0,29.59,SE,136,0.0,1.0,20,0.00,,,0.00,weatherlink.com 1.10,2013-05-23 11:12:00,
2013-05-23 05:27:00,61.2,18.0,29.59,ESE,109,0.0,2.0,19,0.00,,,0.00,weatherlink.com 1.10,2013-05-23 11:27:00,
2013-05-23 05:42:00,59.9,20.0,29.61,SE,125,0.0,0.0,21,0.00,,,0.00,weatherlink.com 1.10,2013-05-23 11:42:00,
2013-05-23 05:57:00,58.8,24.0,29.61,SE,125,0.0,0.0,26,0.00,,,0.00,weatherlink.com 1.10,2013-05-23 11:57:00,
2013-05-23 06:12:00,58.8,25.0,29.61,SE,127,0.0,0.0,27,0.00,,,0.00,weatherlink.com 1.10,2013-05-23 12:12:00,
2013-05-23 06:27:00,57.5,22.0,29.62,SE,125,0.0,0.0,25,0.00,,,0.00,weatherlink.com 1.10,2013-05-23 12:27:00,
2013-05-23 06:42:00,58.6,23.0,29.62,SE,125,0.0,1.0,25,0.00,,,0.00,weatherlink.com 1.10,2013-05-23 12:42:00,
2013-05-23 06:57:00,62.0,25.0,29.62,SE,125,0.0,0.0,24,0.00,,,0.00,weatherlink.com 1.10,2013-05-23 12:57:00,
2013-05-23 07:12:00,63.4,25.0,29.62,SE,125,0.0,1.0,23,0.00,,,0.00,weatherlink.com 1.10,2013-05-23 13:12:00,
2013-05-23 07:27:00,63.9,25.0,29.62,SE,125,0.0,1.0,23,0.00,,,0.00,weatherlink.com 1.10,2013-05-23 13:27:00,
2013-05-23 07:42:00,64.9,25.0,29.62,NNW,328,0.0,2.0,22,0.00,,,0.00,weatherlink.com 1.10,2013-05-23 13:42:00,
2013-05-23 07:57:00,67.3,24.0,29.62,North,359,0.0,3.0,19,0.00,,,0.00,weatherlink.com 1.10,2013-05-23 13:57:00,
2013-05-23 08:12:00,69.0,21.0,29.64,North,6,3.0,3.0,16,0.00,,,0.00,weatherlink.com 1.10,2013-05-23 14:12:00,
2013-05-23 08:27:00,68.4,20.0,29.65,NNW,333,1.0,3.0,16,0.00,,,0.00,weatherlink.com 1.10,2013-05-23 14:27:00,
2013-05-23 08:42:00,70.6,21.0,29.65,NNW,342,3.0,5.0,15,0.00,,,0.00,weatherlink.com 1.10,2013-05-23 14:42:00,
2013-05-23 08:57:00,71.0,21.0,29.65,NNE,30,1.0,3.0,15,0.00,,,0.00,weatherlink.com 1.10,2013-05-23 14:57:00,
2013-05-23 09:12:00,73.0,21.0,29.65,NNW,345,1.0,3.0,14,0.00,,,0.00,weatherlink.com 1.10,2013-05-23 15:12:00,
2013-05-23 09:27:00,75.1,21.0,29.64,North,355,1.0,3.0,13,0.00,,,0.00,weatherlink.com 1.10,2013-05-23 15:27:00,
2013-05-23 09:42:00,76.4,25.0,29.64,NNE,13,1.0,3.0,15,0.00,,,0.00,weatherlink.com 1.10,2013-05-23 15:42:00,
2013-05-23 09:57:00,78.9,22.0,29.64,ESE,122,1.0,2.0,12,0.00,,,0.00,weatherlink.com 1.10,2013-05-23 15:57:00,
2013-05-23 10:13:00,81.2,20.0,29.63,WSW,242,2.0,2.0,10,0.00,,,0.00,weatherlink.com 1.10,2013-05-23 16:13:00,
2013-05-23 10:28:00,83.5,19.0,29.63,SE,143,0.0,4.0,9,0.00,,,0.00,weatherlink.com 1.10,2013-05-23 16:28:00,
2013-05-23 10:43:00,83.3,19.0,29.63,West,271,0.0,4.0,9,0.00,,,0.00,weatherlink.com 1.10,2013-05-23 16:43:00,
2013-05-23 10:58:00,84.5,20.0,29.62,SE,125,0.0,4.0,9,0.00,,,0.00,weatherlink.com 1.10,2013-05-23 16:58:00,
2013-05-23 11:13:00,85.7,21.0,29.62,SE,132,1.0,4.0,9,0.00,,,0.00,weatherlink.com 1.10,2013-05-23 17:13:00,
2013-05-23 11:28:00,86.1,21.0,29.62,East,100,2.0,5.0,9,0.00,,,0.00,weatherlink.com 1.10,2013-05-23 17:28:00,
2013-05-23 11:43:00,86.2,18.0,29.61,SSW,195,1.0,5.0,8,0.00,,,0.00,weatherlink.com 1.10,2013-05-23 17:43:00,
2013-05-23 11:58:00,86.9,19.0,29.61,WSW,250,4.0,6.0,8,0.00,,,0.00,weatherlink.com 1.10,2013-05-23 17:58:00,
2013-05-23 12:13:00,88.4,17.0,29.60,South,172,1.0,6.0,7,0.00,,,0.00,weatherlink.com 1.10,2013-05-23 18:13:00,
2013-05-23 12:28:00,88.9,20.0,29.59,SW,236,3.0,7.0,8,0.00,,,0.00,weatherlink.com 1.10,2013-05-23 18:28:00,
2013-05-23 12:43:00,89.8,18.0,29.59,SE,142,9.0,9.0,7,0.00,,,0.00,weatherlink.com 1.10,2013-05-23 18:43:00,
2013-05-23 12:58:00,90.2,15.0,29.58,SW,235,3.0,8.0,6,0.00,,,0.00,weatherlink.com 1.10,2013-05-23 18:58:00,
2013-05-23 13:13:00,90.9,19.0,29.58,WSW,252,3.0,6.0,7,0.00,,,0.00,weatherlink.com 1.10,2013-05-23 19:13:00,
2013-05-23 13:28:00,90.4,18.0,29.57,WSW,248,5.0,7.0,7,0.00,,,0.00,weatherlink.com 1.10,2013-05-23 19:28:00,
2013-05-23 13:43:00,91.0,19.0,29.56,ESE,115,3.0,11.0,7,0.00,,,0.00,weatherlink.com 1.10,2013-05-23 19:43:00,
2013-05-23 13:58:00,91.1,19.0,29.55,East,92,3.0,11.0,7,0.00,,,0.00,weatherlink.com 1.10,2013-05-23 19:58:00,
2013-05-23 14:13:00,92.0,16.0,29.55,South,171,2.0,10.0,6,0.00,,,0.00,weatherlink.com 1.10,2013-05-23 20:13:00,
2013-05-23 14:28:00,92.1,16.0,29.54,SW,224,5.0,9.0,6,0.00,,,0.00,weatherlink.com 1.10,2013-05-23 20:28:00,
2013-05-23 14:43:00,92.6,12.0,29.53,SSW,213,2.0,10.0,5,0.00,,,0.00,weatherlink.com 1.10,2013-05-23 20:43:00,
2013-05-23 14:58:00,93.2,13.0,29.52,SW,233,7.0,11.0,5,0.00,,,0.00,weatherlink.com 1.10,2013-05-23 20:58:00,
2013-05-23 15:13:00,94.0,13.0,29.51,SSE,148,3.0,11.0,5,0.00,,,0.00,weatherlink.com 1.10,2013-05-23 21:13:00,
2013-05-23 15:28:00,93.6,13.0,29.50,NNE,20,2.0,9.0,5,0.00,,,0.00,weatherlink.com 1.10,2013-05-23 21:28:00,
2013-05-23 15:43:00,94.0,13.0,29.49,West,278,3.0,11.0,5,0.00,,,0.00,weatherlink.com 1.10,2013-05-23 21:43:00,
2013-05-23 15:58:00,92.9,12.0,29.48,SE,127,7.0,13.0,5,0.00,,,0.00,weatherlink.com 1.10,2013-05-23 21:58:00,
2013-05-23 16:13:00,93.6,17.0,29.48,ESE,110,1.0,9.0,6,0.00,,,0.00,weatherlink.com 1.10,2013-05-23 22:13:00,
2013-05-23 16:28:00,92.6,12.0,29.47,SE,139,3.0,11.0,5,0.00,,,0.00,weatherlink.com 1.10,2013-05-23 22:28:00,
2013-05-23 16:43:00,92.4,16.0,29.46,SW,229,3.0,15.0,6,0.00,,,0.00,weatherlink.com 1.10,2013-05-23 22:43:00,
2013-05-23 16:58:00,91.3,11.0,29.46,ENE,58,2.0,23.0,5,0.00,,,0.00,weatherlink.com 1.10,2013-05-23 22:58:00,
2013-05-23 17:13:00,92.1,12.0,29.46,NW,307,4.0,9.0,5,0.00,,,0.00,weatherlink.com 1.10,2013-05-23 23:13:00,
2013-05-23 17:28:00,92.2,12.0,29.45,ESE,117,5.0,16.0,5,0.00,,,0.00,weatherlink.com 1.10,2013-05-23 23:28:00,
2013-05-23 17:43:00,91.3,11.0,29.44,ESE,113,9.0,14.0,5,0.00,,,0.00,weatherlink.com 1.10,2013-05-23 23:43:00,
2013-05-23 17:58:00,91.5,11.0,29.44,SW,217,5.0,10.0,5,0.00,,,0.00,weatherlink.com 1.10,2013-05-23 23:58:00,
2013-05-23 18:13:00,91.0,11.0,29.43,SE,136,10.0,16.0,5,0.00,,,0.00,weatherlink.com 1.10,2013-05-24 00:13:00,
2013-05-23 18:30:00,90.9,11.0,29.43,SE,128,4.0,12.0,5,0.00,,,0.00,weatherlink.com 1.10,2013-05-24 00:30:00,
2013-05-23 18:44:00,90.0,10.0,29.43,SSW,208,1.0,9.0,5,0.00,,,0.00,weatherlink.com 1.10,2013-05-24 00:44:00,
2013-05-23 18:59:00,89.1,10.0,29.43,South,173,6.0,10.0,5,0.00,,,0.00,weatherlink.com 1.10,2013-05-24 00:59:00,
2013-05-23 19:14:00,87.7,13.0,29.44,SSW,197,1.0,7.0,6,0.00,,,0.00,weatherlink.com 1.10,2013-05-24 01:14:00,
2013-05-23 19:29:00,87.0,12.0,29.45,SW,219,0.0,7.0,6,0.00,,,0.00,weatherlink.com 1.10,2013-05-24 01:29:00,
2013-05-23 19:44:00,87.2,8.0,29.45,SSE,152,1.0,9.0,5,0.00,,,0.00,weatherlink.com 1.10,2013-05-24 01:44:00,
2013-05-23 19:59:00,86.4,12.0,29.45,SSE,163,2.0,9.0,6,0.00,,,0.00,weatherlink.com 1.10,2013-05-24 01:59:00,
2013-05-23 20:14:00,84.8,14.0,29.47,SW,225,3.0,5.0,7,0.00,,,0.00,weatherlink.com 1.10,2013-05-24 02:14:00,
2013-05-23 20:29:00,82.9,23.0,29.47,ESE,119,0.0,4.0,11,0.00,,,0.00,weatherlink.com 1.10,2013-05-24 02:29:00,
2013-05-23 20:44:00,80.8,19.0,29.48,ESE,117,0.0,1.0,10,0.00,,,0.00,weatherlink.com 1.10,2013-05-24 02:44:00,
2013-05-23 20:59:00,80.3,-2.0,29.49,SW,231,0.0,3.0,4,0.00,,,0.00,weatherlink.com 1.10,2013-05-24 02:59:00,
2013-05-23 21:14:00,79.7,7.0,29.50,WSW,243,1.0,3.0,6,0.00,,,0.00,weatherlink.com 1.10,2013-05-24 03:14:00,
2013-05-23 21:29:00,78.6,2.0,29.50,ESE,122,0.0,3.0,5,0.00,,,0.00,weatherlink.com 1.10,2013-05-24 03:29:00,
2013-05-23 21:44:00,79.2,6.0,29.51,SE,132,0.0,2.0,6,0.00,,,0.00,weatherlink.com 1.10,2013-05-24 03:44:00,
2013-05-23 21:59:00,77.7,5.0,29.52,SE,125,1.0,2.0,6,0.00,,,0.00,weatherlink.com 1.10,2013-05-24 03:59:00,
2013-05-23 22:14:00,76.6,11.0,29.52,ESE,115,0.0,1.0,8,0.00,,,0.00,weatherlink.com 1.10,2013-05-24 04:14:00,
2013-05-23 22:29:00,76.2,11.0,29.54,ESE,110,10.0,10.0,8,0.00,,,0.00,weatherlink.com 1.10,2013-05-24 04:29:00,
2013-05-23 22:44:00,77.9,41.0,29.55,SE,144,3.0,12.0,27,0.00,,,0.00,weatherlink.com 1.10,2013-05-24 04:44:00,
2013-05-23 22:59:00,77.7,45.0,29.55,SSW,193,2.0,8.0,31,0.00,,,0.00,weatherlink.com 1.10,2013-05-24 04:59:00,
2013-05-23 23:14:00,75.8,46.0,29.55,East,89,0.0,2.0,35,0.00,,,0.00,weatherlink.com 1.10,2013-05-24 05:14:00,
2013-05-23 23:29:00,76.1,49.0,29.55,SE,128,4.0,11.0,38,0.00,,,0.00,weatherlink.com 1.10,2013-05-24 05:29:00,
2013-05-23 23:44:00,75.5,49.0,29.54,East,101,4.0,7.0,40,0.00,,,0.00,weatherlink.com 1.10,2013-05-24 05:44:00,